Regional Weather Roundup
Issued by NWS Bismarck, ND

Home | Current Version | Previous Version | Text Only | Print | Product List | Glossary On
Versions: 1 2 3 4 5 6 7 8 9 10 11 12 13 14 15 16 17 18 19 20 21 22 23 24 25 26 27 28 29 30 31 32 33 34 35 36 37 38 39 40 41 42 43 44 45 46 47 48 49 50
883
ASUS43 KBIS 171102
RWRBIS

NWR BROADCAST TEXT
NATIONAL WEATHER SERVICE BISMARCK ND
500 AM CST TUE JAN 17 2017

NOTE: "FAIR" INDICATES FEW OR NO CLOUDS BELOW 12,000 FEET WITH NO
SIGNIFICANT WEATHER AND/OR OBSTRUCTIONS TO VISIBILITY.


CITY           SKY/WX    TMP DP  RH WIND       PRES   REMARKS
WILLISTON      FAIR       6   2  83 SW8       29.88F WCI  -7
MINOT          FAIR      19  14  81 SW14      29.87F WCI   6
MINOT AFB      NOT AVBL
BISMARCK       FAIR       3  -1  83 CALM      30.00F FOG
DICKINSON      FAIR      16   7  67 SW7       29.90F WCI   6
GARRISON         N/A      6   3  87 CALM      29.92F
HETTINGER ARPT FAIR       3  -1  83 W3        29.96F
JAMESTOWN      FAIR       9   6  88 W7        29.97S WCI  -2
CARRINGTON     FAIR       9   5  85 W10       29.98S WCI  -6
HAZEN            N/A    N/A N/A N/A W5        29.97F
MANDAN         FAIR       9   7  92 W7        29.98F WCI  -3
STANLEY        FAIR      14  10  85 W8        29.89F WCI   3
$$

CITY           SKY/WX    TMP DP  RH WIND       PRES   REMARKS
GRAND FORKS    FAIR       1  -3  83 SW7       29.97F WCI -12
GRAND FORKS AF FAIR       6   2  84 W5        29.96F WCI  -3
DEVILS LAKE    FAIR       8   5  87 W8        29.94F WCI  -4
FARGO          FAIR       3   0  87 S6        29.99F WCI  -8
GRAFTON        FAIR       0  -4  85 S5        29.98S WCI -10
GWINNER        FAIR      10   9  92 W12       29.99F WCI  -4
$$

CITY           SKY/WX    TMP DP  RH WIND       PRES   REMARKS
ABERDEEN       FAIR       0  -4  83 CALM      30.01F
MOBRIDGE       FAIR       6   1  80 CALM      29.98F
BUFFALO          N/A     18   8  65 SW7       29.87F WCI   9
RAPID CITY     FAIR      15   9  76 CALM      29.98F
GLASGOW        FAIR      10   5  80 E9        29.80F WCI  -3
SIDNEY         FAIR       8   3  80 S16       29.89F WCI -10
WOLF POINT     FAIR      -2  -7  79 CALM      29.84F
GLENDIVE       FAIR      12   6  77 SW17      29.89F WCI  -5
MILES CITY     FAIR      -1  -6  79 NW5       29.92F WCI -11
BAKER          FAIR      26  10  50 SW16      29.90F WCI  14
$$

CITY           SKY/WX    TMP DP  RH WIND       PRES   REMARKS
BILLINGS       FAIR      25  11  55 SW21      29.91S WCI  11
GREAT FALLS    FAIR      36  15  42 SW31G38   29.83S
$$





USA.gov is the U.S. government's official web portal to all federal, state and local government web resources and services.